Regional Weather Roundup
Issued by NWS Charleston, SC

Current Version | Previous Version | Graphics & Text | Print | Product List | Glossary On
Versions: 1 2 3 4 5 6 7 8 9 10 11 12 13 14 15 16 17 18 19 20 21 22 23 24 25 26 27 28 29 30 31 32 33 34 35 36 37 38 39 40 41 42 43 44 45 46 47 48 49 50
000
ASUS42 KCHS 291827
RWRCHS

REGIONAL WEATHER ROUNDUP
NATIONAL WEATHER SERVICE CHARLESTON SC
200 PM EDT SAT APR 29 2017

NOTE: "FAIR" INDICATES FEW OR NO CLOUDS BELOW 12,000 FEET WITH NO
SIGNIFICANT WEATHER AND/OR OBSTRUCTIONS TO VISIBILITY.

NOT ALL STATIONS ARE QUALITY CONTROLLED. USE DATA WITH CAUTION...
ESPECIALLY DEWPOINT OBSERVATIONS.

SCZ027-030-031-034>040-042>050-291900-
...SOUTHEAST SOUTH CAROLINA...

CITY           SKY/WX    TMP DP  RH WIND       PRES   REMARKS
N CHARLESTON   PTSUNNY   85  69  58 S13       30.20S
6HR MIN TEMP:  75; 6HR MAX TEMP:  86;

WATERFRONT PRK   N/A     79  73  82 S9        30.19F
JOHNS ISLAND   CLOUDY    81  73  78 S14       30.22R
PINOPOLIS        N/A     84  70  61 S6        30.12F
MONCKS CORNER  FAIR      84  66  54 S9        30.19S
SUMMERVILLE    FAIR      86  68  54 S9        30.20S
BEAUFORT MCAS  PTSUNNY   84  73  69 S10G17    30.20S HX  90
6HR MIN TEMP:  75; 6HR MAX TEMP:  85;

BEAUFORT ARPT  FAIR      82  70  65 S13G22    30.20S
HILTON HEAD IS MOSUNNY   82  73  74 S12G17    30.22S
WALTERBORO     CLOUDY    86  68  54 S15       30.19F
ALLENDALE      FAIR      88  68  51 S9        30.16F HX  91

...SOUTHERN MIDLANDS AND PEE DEE...

CITY           SKY/WX    TMP DP  RH WIND       PRES   REMARKS
GEORGETOWN     FAIR      84  70  61 S13G18    30.21S
KINGSTREE      FAIR      88  64  45 SE8       30.18S
ORANGEBURG     MOSUNNY   85  68  56 SW7       30.18F
6HR MIN TEMP:  72; 6HR MAX TEMP:  87;

BARNWELL       MOCLDY    88  70  55 S6        30.17S HX  92
AIKEN          MOCLDY    82  70  65 S7        30.21F
MANNING        FAIR      86  68  54 SW17G28   30.18S
COLUMBIA       MOSUNNY   86  68  54 S9        30.17F
6HR MIN TEMP:  73; 6HR MAX TEMP:  87;

SUMTER         MOSUNNY   86  67  51 SW10      30.16F
6HR MIN TEMP:  73; 6HR MAX TEMP:  87;

FLORENCE       MOSUNNY   87  69  54 VRB6      30.17F HX  91
6HR MIN TEMP:  74; 6HR MAX TEMP:  87;

MYRTLE BEACH   MOSUNNY   82  73  74 S15       30.21F
N MYRTLE BEACH SUNNY     79  73  82 S13       30.21S
6HR MIN TEMP:  75; 6HR MAX TEMP:  81;


$$

GAZ063-065-086>088-099>101-113>116-118-119-134>141-150-291900-
...SOUTHEAST GEORGIA...

CITY           SKY/WX    TMP DP  RH WIND       PRES   REMARKS
SAVANNAH ARPT  CLOUDY    87  67  51 S17       30.19S HX  90
6HR MIN TEMP:  76; 6HR MAX TEMP:  88;

HUNTER AAF     PTSUNNY   82  75  78 S9        30.17S
FORT STEWART   CLOUDY    86  68  54 SE13      30.15F HX  90
6HR MIN TEMP:  74; 6HR MAX TEMP:  87;

STATESBORO     MOSUNNY   90  64  42 S9G16     30.16F HX  91
SYLVANIA       PTCLDY   N/A N/A N/A S9        30.17F
CLAXTON        FAIR      88  73  60 S6        30.15F HX  95

...CSRA...CENTRAL AND FAR SOUTHEAST GEORGIA...

CITY           SKY/WX    TMP DP  RH WIND       PRES   REMARKS
THOMSON        CLOUDY    80  72  76 S6        30.22S
AUGUSTA-BUSH   CLOUDY    85  73  67 SE3       30.15F HX  91
6HR MIN TEMP:  73; 6HR MAX TEMP:  86;

AUGUSTA-DANIEL PTSUNNY   84  70  62 SE7       30.18F
SWAINSBORO     FAIR      88  66  48 S7        30.16F HX  90
VIDALIA        MOSUNNY   90  64  43 S9        30.15F HX  91
EASTMAN        MOCLDY    91  51  25 S5        30.16F
HAZLEHURST     FAIR      89  67  48 SW7       30.13F HX  92
ALMA           CLOUDY    89  68  49 SE8       30.15F HX  93
6HR MIN TEMP:  74; 6HR MAX TEMP:  89;

WAYCROSS       PTSUNNY   92  71  50 SE12      30.14F HX  98
JESUP          FAIR      90  64  43 SE8       30.15F HX  91
BAXLEY         FAIR      90  72  55 S9        30.14F HX  96
BRUNSWICK      MOSUNNY   84  73  70 SE14      30.19S HX  91
SAINT SIMONS   CLOUDY    82  72  71 SE12      30.18F
6HR MIN TEMP:  76; 6HR MAX TEMP:  83;


$$

SCZ027-028-034-036>038-045-046-048>050-GAZ119-141-291900-
...LAKE AND SUPPLEMENTAL COASTAL OBSERVATIONS...

STATION/POSITION TIME  TEMP    WIND        PRES    WAVE   SWELL
                       AIR SEA DIR/SP/G            HT/PER HT/PER/DIR
                 (UTC) (F)     (DEG/KT/KT) (MB)    (FT/S) (FT/S/D)
WINYAH BAY       1745   80     190/ 13     1023.0S
LAKE MURRAY      1820   79     200/  6/  7 1021.0
ACE BASIN NERRS  1730   81     170/  2     1023.0S
FORT PULASKI     1800   80 76  170/  7/ 11 1023.1
SAPELO ISLAND    1800   83     150/ 11     1022.0

$$

ANZ835-935-AMZ111-154-330-350-352-354-370-450-454-472-291900-
...C-MAN AND BUOY OBSERVATIONS...

STATION/POSITION TIME  TEMP    WIND        PRES    WAVE   SWELL
                       AIR SEA DIR/SP/G            HT/PER HT/PER/DIR
                 (UTC) (F)     (DEG/KT/KT) (MB)    (FT/S) (FT/S/D)
BUOY 41004       1810   76 75  170/  8/ 10 1023.4
BUOY 41008       1750   75 75  140/  6/  6 1022.3F   3/ 6   3/130/ 6
FOLLY BEACH CMAN 1800   78     170/  7/  9 1023.9S
CAPERS NEARSHORE 1808   77 76  180/  8/ 12 1023.3S
FRIPP NEARSHORE  1808   76 75  180/  6/  8 1022.9S


STATION/POSITION TIME  TEMP    WIND        PRES    WAVE   SWELL
                       AIR SEA DIR/SP/G            HT/PER HT/PER/DIR
                 (UTC) (F)     (DEG/KT/KT) (MB)    (FT/S) (FT/S/D)
5E ST. MARYS GA  1800      75                N/A     3/ 6
FRYING PAN BUOY  1810   76 74  200/  8/ 10 1023.8
BUOY 41025       1750   77 76  220/ 16/ 19 1023.0F   3/ 8   2/120/ 8
CAPE LOOKOUT NC  1800   77     210/ 15/ 18 1023.0F
BUOY 41002       1750   75 76  150/ 10/ 12 1025.6F   3/ 8   3/ 60/ 8
BUOY 41010       1810   78 79  130/ 14/ 17 1022.5
ST AUGUSTINE FL  1800   76 78  140/ 17/ 20 1022.6F


$$



USA.gov is the U.S. government's official web portal to all federal, state and local government web resources and services.